Location: Devore Heights
(34.2372°N, 117.4156°W)
Time: 08:39:48
(UTC+00:00)

A-11 Canister half - Pass Details

Date: 21 September 2024
Orbit: 1515 x 1684 km, 47.2° (Epoch: 07 October)

Event Time Altitude Azimuth Distance (km) Brightness Sun altitude
Rises 06:37:11 0° 305° (NW) 4,671 12.0 -52.0°
Reaches altitude 10° 06:40:15 10° 307° (NW) 3,680 11.4 -52.3°
Enters shadow 06:43:31 25° 311° (NW) 2,670 10.5 -52.6°
Maximum altitude 06:49:30 75° 33° (NNE) 1,562 - -53.1°
Drops below altitude 10° 06:58:49 10° 119° (ESE) 3,705 - -53.8°
Sets 07:01:54 0° 121° (ESE) 4,703 - -54.0°
